• Join FlightAware (Why Join?)
  • Login
  • US Flag GB Flag 
02:52 EDT


 

Airport Tracker/Info


-or-


 

Live Flight TrackerFlight Track Log ✈ EJA831 ✈ 11-Dec-2012 ✈ KSYR - KMSN

Flight Track Log - Related Links

Times and Time Zones

All times are in EST time to prevent confusion due to time zone crossing. See the EJA831 flight status page for this flight to view local times or setup timezone preferences in your user account.

Time Position Orientation Groundspeed Altitude Reporting Facility
EST Latitude Longitude Course Direction KTS MPH feet Rate Location/Type
09:48 43.1225 -76.1186 313° West 138 159 1,400  Level Boston Center
09:49 43.1583 -76.1719 313° West 228 262 3,500 2,880 Climbing Boston Center
09:50 43.1722 -76.2553 283° West 223 257 7,000 2,400 Climbing Boston Center
09:51 43.1839 -76.3417 281° West 245 282 8,400 1,680 Climbing Boston Center
09:51 43.1950 -76.3908 287° West 264 304 9,500 1,080 Climbing Cleveland Center
09:52 43.2089 -76.4897 281° West 264 304 10,200 1,380 Climbing Cleveland Center
09:53 43.2253 -76.5969 282° West 276 318 12,300 1,320 Climbing Cleveland Center
09:54 43.2433 -76.6956 284° West 282 325 12,900 900 Climbing Cleveland Center
09:55 43.2589 -76.7944 282° West 275 316 14,200 2,340 Climbing Cleveland Center
09:56 43.2769 -76.8989 283° West 280 322 17,600 3,660 Climbing Cleveland Center
09:57 43.2928 -77.0006 282° West 280 322 21,600 3,600 Climbing Cleveland Center
09:58 43.3078 -77.0883 283° West 263 303 24,900 2,760 Climbing Cleveland Center
09:59 43.3275 -77.1869 285° West 249 287 27,200 1,860 Climbing Cleveland Center
10:00 43.3408 -77.2861 281° West 254 292 28,700 900 Climbing Cleveland Center
10:01 43.3561 -77.3939 281° West 275 316 29,000 600 Climbing Cleveland Center
10:02 43.3697 -77.5103 279° West 295 339 30,000 1,320 Climbing Cleveland Center
10:03 43.3853 -77.6208 281° West 301 346 31,700 960 Climbing Cleveland Center
10:04 43.3858 -77.7325 270° West 301 346 32,000 120 Climbing Cleveland Center
10:05 43.3867 -77.8467 271° West 301 346 32,000 660 Level Cleveland Center
10:06 43.3850 -77.9608 269° West 301 346 33,400 1,500 Climbing Cleveland Center
10:07 43.3833 -78.0667 269° West 296 341 35,000 1,560 Climbing Cleveland Center
10:08 43.3856 -78.1722 272° West 286 329 36,600 1,560 Climbing Cleveland Center
10:09 43.3833 -78.2725 268° West 279 321 38,200 1,320 Climbing Cleveland Center
10:10 43.3811 -78.3725 268° West 267 307 39,300 780 Climbing Cleveland Center
10:11 43.3811 -78.4781 270° West 273 314 39,800 240 Climbing Cleveland Center
10:13 43.3667 -78.6167 262° West 300 345 40,000 60 Climbing Toronto Center
10:14 43.3667 -78.7667 270° West 320 368 40,000  Level Toronto Center
10:15 43.3667 -78.8833 270° West 330 380 40,000  Level Toronto Center
10:16 43.3667 -78.9833 270° West 330 380 40,000  Level Toronto Center
10:17 43.3667 -79.1333 270° West 330 380 40,000  Level Toronto Center
10:18 43.3667 -79.2667 270° West 330 380 40,000  Level Toronto Center
10:19 43.3500 -79.3833 259° West 330 380 40,000  Level Toronto Center
10:20 43.3500 -79.5000 270° West 330 380 40,000  Level Toronto Center
10:21 43.3500 -79.6333 270° West 330 380 40,000  Level Toronto Center
10:22 43.3500 -79.7667 270° West 330 380 40,000  Level Toronto Center
10:23 43.3500 -79.8833 270° West 340 391 40,000  Level Toronto Center
10:24 43.3500 -80.0167 270° West 340 391 40,000  Level Toronto Center
10:25 43.3333 -80.1333 259° West 340 391 40,000  Level Toronto Center
10:26 43.3333 -80.2667 270° West 340 391 40,000  Level Toronto Center
10:27 43.3333 -80.4167 270° West 340 391 40,000  Level Toronto Center
10:28 43.3333 -80.5333 270° West 340 391 40,000  Level Toronto Center
10:29 43.3333 -80.6667 270° West 340 391 40,000  Level Toronto Center
10:30 43.3333 -80.8000 270° West 340 391 40,000  Level Toronto Center
10:31 43.3000 -80.9167 249° West 340 391 40,000  Level Toronto Center
10:32 43.3000 -81.0500 270° West 340 391 40,000  Level Toronto Center
10:33 43.3000 -81.1667 270° West 340 391 40,000  Level Toronto Center
10:34 43.3000 -81.3000 270° West 340 391 40,000  Level Toronto Center
10:35 43.3000 -81.4500 270° West 340 391 40,000  Level Toronto Center
10:36 43.3000 -81.5500 270° West 340 391 40,000  Level Toronto Center
10:37 43.2833 -81.7000 261° West 330 380 40,000  Level Toronto Center
10:38 43.2833 -81.8167 270° West 330 380 40,000  Level Toronto Center
10:39 43.2667 -81.9500 260° West 330 380 40,000  Level Toronto Center
10:40 43.2667 -82.0667 270° West 330 380 40,000  Level Toronto Center
10:41 43.2667 -82.2000 270° West 330 380 40,000  Level Toronto Center
10:42 43.2667 -82.3167 270° West 330 380 40,000  Level Toronto Center
10:43 43.2667 -82.4500 270° West 330 380 40,000  Level Toronto Center
10:44 43.2500 -82.5667 259° West 330 380 40,000  Level Toronto Center
10:45 43.2333 -82.7000 260° West 330 380 40,000  Level Toronto Center
10:45 43.2553 -82.7239 322° Northwest 329 379 40,000  Level Cleveland Center
10:46 43.2567 -82.8664 271° West 329 379 40,000  Level Cleveland Center
10:47 43.2561 -82.9919 270° West 329 379 40,000  Level Cleveland Center
10:48 43.2536 -83.1172 268° West 329 379 40,000  Level Cleveland Center
10:49 43.2528 -83.2425 270° West 329 379 40,000  Level Cleveland Center
10:50 43.2519 -83.3681 270° West 329 379 40,000  Level Cleveland Center
10:51 43.2531 -83.4936 271° West 329 379 40,000  Level Cleveland Center
10:52 43.2517 -83.6244 269° West 329 379 40,000  Level Cleveland Center
10:53 43.2506 -83.7472 269° West 329 379 40,000  Level Cleveland Center
10:54 43.2469 -83.8753 268° West 329 379 40,000  Level Cleveland Center
10:55 43.2461 -83.9750 269° West 329 379 40,000  Level Cleveland Center
10:56 43.2442 -84.1117 269° West 329 379 40,000  Level Cleveland Center
10:57 43.2464 -84.2431 271° West 329 379 40,000  Level Cleveland Center
10:59 43.2333 -84.4667 265° West 340 391 40,000  Level Toronto Center
11:00 43.2167 -84.6000 260° West 340 391 40,000  Level Toronto Center
11:01 43.2167 -84.7333 270° West 350 403 40,000  Level Toronto Center
11:02 43.2344 -84.8600 281° West 350 403 40,000  Level Chicago Center
11:03 43.2314 -84.9922 268° West 349 402 40,000  Level Chicago Center
11:04 43.2289 -85.1522 269° West 350 403 40,000  Level Chicago Center
11:05 43.2261 -85.2875 268° West 354 407 40,000  Level Chicago Center
11:06 43.2228 -85.4211 268° West 354 407 40,000  Level Chicago Center
11:07 43.2214 -85.5536 269° West 352 405 40,000  Level Chicago Center
11:08 43.2203 -85.6883 269° West 354 407 40,000 -420 Level Chicago Center
11:09 43.2192 -85.8247 269° West 359 413 39,200 -1,080 Descending Chicago Center
11:10 43.2181 -85.9883 270° West 364 419 37,900 -1,260 Descending Chicago Center
11:11 43.2167 -86.1214 269° West 359 413 36,700 -1,200 Descending Chicago Center
11:12 43.2161 -86.2567 270° West 359 413 35,500 -1,200 Descending Chicago Center
11:13 43.2142 -86.3900 269° West 355 409 34,300 -1,200 Descending Chicago Center
11:14 43.2131 -86.5222 269° West 351 404 33,100 -1,140 Descending Chicago Center
11:15 43.2103 -86.6814 269° West 350 403 32,000 -540 Descending Chicago Center
11:16 43.2086 -86.8186 269° West 358 412 32,000  Level Chicago Center
11:17 43.2061 -86.9619 269° West 373 429 32,000 -120 Level Chicago Center
11:18 43.2042 -87.1050 269° West 376 433 31,800 -840 Descending Chicago Center
11:19 43.2003 -87.2456 268° West 373 429 30,300 -1,560 Descending Chicago Center
11:20 43.1981 -87.3997 269° West 365 420 28,600 -1,620 Descending Chicago Center
11:21 43.1942 -87.5367 268° West 360 414 27,100 -1,500 Descending Chicago Center
11:23 43.1911 -87.6769 268° West 365 420 25,600 -1,500 Descending Chicago Center
11:24 43.1875 -87.8119 268° West 356 410 24,100 -1,620 Descending Chicago Center
11:25 43.1839 -87.9478 268° West 356 410 22,300 -2,040 Descending Chicago Center
11:26 43.1800 -88.1039 268° West 350 403 20,000 -2,160 Descending Chicago Center
11:27 43.1753 -88.2250 267° West 326 375 17,900 -2,040 Descending Chicago Center
11:28 43.1733 -88.3431 269° West 310 357 15,900 -1,980 Descending Chicago Center
11:29 43.1692 -88.4589 267° West 303 349 13,900 -1,980 Descending Chicago Center
11:30 43.1661 -88.5756 268° West 303 349 11,900 -1,800 Descending Chicago Center
11:31 43.1700 -88.6875 273° West 296 341 10,200 -1,740 Descending Chicago Center
11:32 43.1847 -88.7836 282° West 265 305 8,400 -1,620 Descending Chicago Center
11:33 43.1981 -88.8772 281° West 253 291 6,900 -1,560 Descending Chicago Center
11:34 43.2078 -88.9772 278° West 234 269 5,200 -1,320 Descending Chicago Center
11:35 43.2072 -89.0647 270° West 231 266 4,200 -1,020 Descending Chicago Center
11:36 43.2094 -89.1478 272° West 224 258 3,200 -780 Descending Chicago Center
11:37 43.2122 -89.2292 273° West 218 251 2,600 -540 Descending Chicago Center
11:38 43.1981 -89.2908 253° West 189 217 2,200 -540 Descending Chicago Center
11:39 43.1681 -89.3158 211° Southwest 144 166 1,500 -720 Descending Chicago Center
11:41 43.1333 -89.3333 270° West  Level FlightAware Approximate
11:48 43.1399 -89.3375 270° West  Level Estimated